Wind_Speed
24 24 24 24 24 24 25 26 26 23 22 22 22 21 19 17 18 18 18 19 19 20 20 20 20 20 21 21 20 20 21 20 20 20 19 20 20 20 19 19 19 19 19 20
27 27 26 26 26 27 27 27 27 25 24 23 22 22 20 20 19 19 19 19 19 20 21 21 22 22 22 21 21 21 21 21 21 20 20 20 21 20 20 20 20 20 21 21
30 29 29 28 27 28 27 27 27 26 25 25 22 22 21 21 21 21 21 21 22 23 22 22 23 23 22 22 21 21 21 21 21 21 21 22 22 22 21 22 22 22 22 23
33 32 32 30 28 28 29 28 28 27 27 26 25 24 22 22 22 22 23 23 23 23 23 24 23 23 23 22 22 22 22 22 22 22 23 23 23 23 23 23 23 23 23 24
34 34 33 31 29 29 30 30 29 28 27 27 26 25 24 24 24 25 25 26 25 25 25 25 25 24 23 23 22 22 22 23 23 23 24 24 24 24 24 24 24 24 24 24
34 34 34 31 30 29 30 31 30 30 29 27 28 28 27 27 26 26 26 26 26 26 26 26 26 25 24 24 24 24 23 23 24 25 25 25 25 24 24 24 25 25 26 25
34 34 34 32 30 29 30 30 29 29 29 29 29 28 28 28 28 28 28 27 28 28 28 27 27 26 26 25 24 24 24 24 25 25 26 26 25 25 25 25 25 26 26 26
33 34 33 31 30 30 30 29 29 29 29 31 31 29 29 29 30 29 28 28 28 29 28 28 27 26 26 26 25 25 25 25 25 25 25 26 26 26 26 26 26 26 26 26
33 33 33 33 32 31 30 30 30 31 31 32 32 32 30 30 30 30 30 29 29 29 27 26 26 25 25 25 26 26 26 26 25 25 26 26 26 26 26 27 27 27 27 27
34 34 33 32 32 31 30 30 30 31 31 32 33 33 33 32 30 29 29 30 29 29 30 29 28 27 26 26 25 26 26 26 26 26 26 26 26 26 27 27 27 27 27 26
34 32 31 31 31 31 31 30 30 30 31 32 33 32 32 31 30 28 29 29 30 30 30 30 29 27 27 27 26 26 27 27 26 26 27 27 28 28 28 28 28 27 27 27
32 31 31 31 31 32 32 31 31 31 31 32 32 31 32 32 31 30 29 30 30 30 30 30 30 29 27 27 27 28 28 28 28 27 28 28 28 28 28 28 28 28 28 27
30 30 31 32 32 33 34 33 32 32 31 31 32 32 32 33 31 30 30 30 31 30 30 29 29 29 28 28 28 28 28 29 29 29 29 29 28 29 28 29 29 28 28 27
30 30 31 31 32 33 34 34 33 32 32 31 32 32 31 31 31 30 30 31 30 29 29 29 28 29 29 28 28 28 29 29 29 29 29 29 29 29 29 29 29 28 28 27
30 30 31 30 31 32 33 32 32 32 32 31 31 31 31 30 30 30 30 29 29 29 29 29 29 29 29 29 29 29 29 29 28 28 29 29 29 29 29 29 28 28 27 27
27 28 29 29 30 31 31 31 30 30 30 30 30 30 30 30 30 30 29 28 28 29 29 29 29 29 29 29 28 28 28 28 28 28 27 28 28 28 28 27 26 26 26 26
27 27 28 28 28 29 30 30 30 30 30 30 29 29 29 29 29 29 29 28 28 29 29 28 28 28 27 27 27 27 27 27 27 27 28 28 28 27 27 26 26 25 25 25
27 27 27 28 28 27 27 28 28 28 28 29 28 28 28 28 28 28 28 28 27 27 27 27 27 27 27 27 27 27 27 27 27 27 28 28 28 27 26 26 26 25 25 24
27 27 27 27 27 28 27 27 27 27 27 27 28 28 27 27 27 28 28 28 26 26 26 25 25 25 25 25 26 26 26 26 26 27 27 27 27 26 26 26 25 25 24 24
25 25 26 26 26 26 25 26 26 26 26 27 27 27 26 26 26 27 26 26 25 25 25 24 24 24 24 24 24 25 25 25 25 26 26 26 26 26 25 25 24 23 23 23
24 24 24 24 24 24 25 26 26 26 27 27 26 25 25 24 24 24 24 24 24 24 24 24 23 23 23 23 24 24 25 24 24 25 25 25 25 24 24 24 23 23 22 22
21 22 22 22 23 23 23 24 25 25 26 25 24 24 23 23 23 23 23 23 23 23 24 23 23 23 23 23 23 24 24 24 24 23 23 23 23 23 23 23 23 22 22 22
20 21 21 21 21 21 22 22 22 23 24 24 23 22 22 22 21 21 21 21 22 22 22 22 22 23 23 23 22 23 23 23 23 23 22 22 22 22 22 22 22 22 22 22
20 21 21 20 20 20 21 20 20 20 21 21 21 21 20 19 19 20 20 20 20 21 21 21 21 21 22 22 22 22 22 22 22 21 21 21 22 22 22 22 21 21 22 23
19 19 19 19 18 18 18 18 18 18 18 19 19 18 17 17 18 18 18 19 19 19 20 20 20 20 21 21 21 21 21 21 20 19 19 20 21 21 21 21 21 21 21 20
18 17 17 16 16 16 17 17 17 17 17 17 17 16 16 16 16 17 17 18 19 19 19 19 19 20 20 21 21 21 21 20 19 19 20 20 20 20 20 20 20 20 20 19
16 15 15 15 15 15 15 16 16 16 16 16 16 16 16 16 17 17 17 18 18 19 19 19 19 19 19 19 19 20 20 20 19 19 19 20 20 20 20 20 20 20 20 20
Wind_Direction
251 249 252 252 252 254 256 259 264 269 270 274 274 273 275 281 289 293 294 292 291 291 294 294 296 298 298 297 295 295 294 294 296 297 297 297 296 296 294 291 288 288 288 287
251 250 251 251 251 255 257 258 261 263 266 269 272 274 277 283 286 290 289 289 291 290 292 293 293 293 295 294 292 292 292 291 293 294 296 296 296 294 294 293 289 288 287 288
251 251 253 253 254 255 258 261 262 262 263 268 270 273 279 281 284 289 289 288 289 289 290 291 291 290 289 290 289 289 289 289 289 291 292 293 294 294 293 293 292 290 289 288
252 252 253 257 258 257 257 260 262 262 262 265 269 272 277 280 282 285 286 287 289 291 290 290 289 289 288 287 286 285 286 287 289 289 291 292 292 292 292 292 292 292 291 289
253 254 256 258 259 260 260 259 260 260 261 263 264 268 270 274 276 279 283 285 286 288 289 290 288 286 285 285 285 285 286 287 288 289 290 291 291 290 289 290 291 291 291 291
255 257 259 259 261 263 263 260 260 260 263 264 264 266 268 272 275 278 281 284 283 285 287 288 287 284 283 283 284 285 285 287 287 288 289 290 290 289 289 290 292 291 290 290
254 258 260 261 261 261 261 262 262 261 262 265 266 268 269 272 275 277 279 278 278 281 283 284 286 285 283 284 285 285 285 286 287 288 289 289 290 289 288 290 292 292 291 289
254 257 259 260 261 261 263 263 262 262 264 266 267 270 271 272 274 275 276 275 276 279 280 281 282 283 283 283 284 285 285 286 287 289 288 289 290 290 291 290 290 291 290 289
258 260 262 261 260 262 262 263 263 263 264 267 269 272 272 273 275 276 275 274 275 277 280 282 282 280 282 283 284 285 285 285 287 288 288 287 288 289 290 291 290 291 289 288
258 259 260 261 261 262 263 263 263 264 264 266 269 271 273 274 274 275 276 275 276 278 280 282 284 282 282 284 284 284 284 285 287 288 289 288 288 289 290 290 290 290 289 289
256 259 260 261 260 260 261 264 266 268 268 269 272 273 273 275 276 277 277 275 275 276 278 281 283 283 283 283 285 284 284 285 286 288 288 288 289 289 288 288 288 289 289 289
257 259 262 262 262 261 262 263 263 265 267 269 274 277 277 276 277 277 276 276 275 275 277 280 281 283 283 284 284 285 284 283 284 286 286 287 287 288 289 289 289 289 288 287
257 257 258 261 262 261 261 260 261 263 264 268 272 275 278 278 278 276 274 274 274 274 275 278 279 281 280 282 283 284 284 283 283 284 285 285 286 287 287 288 289 289 288 287
257 258 258 261 262 264 262 261 261 262 264 266 270 273 276 277 277 276 274 274 273 274 275 277 277 280 280 280 282 283 283 284 284 284 285 286 286 288 287 287 288 287 287 286
256 258 260 260 261 262 261 261 260 262 264 265 267 270 274 277 278 276 273 273 274 275 277 277 277 279 279 280 281 282 283 283 284 285 286 287 287 287 286 287 288 287 287 286
256 258 260 259 259 259 260 260 260 263 265 266 267 269 273 276 278 278 275 274 275 276 277 277 277 277 278 280 280 280 280 282 283 285 286 288 288 288 288 288 289 289 288 288
254 257 260 261 261 260 260 259 262 264 266 267 267 269 271 274 276 276 276 276 276 276 276 276 276 275 276 279 280 281 281 282 284 284 286 288 288 288 289 290 289 289 289 289
258 260 262 264 265 263 262 262 263 265 267 267 266 267 270 273 275 275 275 276 277 277 276 274 273 274 276 278 279 280 281 282 283 283 284 286 287 288 289 291 291 290 288 287
258 261 263 265 266 264 263 263 263 265 265 265 267 269 269 269 271 273 274 275 277 277 277 275 275 276 278 279 279 280 280 281 282 283 284 284 285 287 288 289 290 289 287 285
260 264 266 267 267 266 264 264 264 266 264 264 265 266 266 268 271 272 273 275 277 280 279 278 277 279 279 280 280 281 281 281 281 283 284 284 285 286 287 287 289 287 285 285
263 266 267 267 267 268 266 266 267 267 267 266 264 264 265 267 269 271 272 275 278 281 282 281 280 280 280 280 280 280 281 281 281 282 283 284 285 286 287 287 287 287 285 285
262 263 266 269 270 269 268 269 268 268 267 265 264 263 263 264 267 269 271 275 278 281 283 282 281 281 281 280 280 280 281 282 282 282 284 285 285 285 286 286 286 285 283 283
263 266 269 271 270 269 270 270 269 268 265 264 263 262 262 262 265 267 271 275 279 281 282 282 280 280 280 279 280 281 282 283 283 283 284 285 285 286 286 286 285 284 283 282
265 268 269 269 270 270 268 269 269 267 264 262 261 260 261 262 265 269 272 276 278 280 280 281 282 280 279 279 282 283 284 284 282 281 283 284 286 288 288 286 287 286 282 281
265 267 267 267 267 267 267 267 267 266 264 262 260 258 260 262 266 270 272 275 278 279 280 282 282 281 279 280 283 284 285 284 284 284 285 286 287 288 289 290 290 290 289 285
268 269 267 265 265 267 266 265 266 265 262 262 262 262 263 265 268 270 272 276 279 280 281 281 282 282 281 282 283 284 285 286 286 285 285 286 287 287 286 286 286 286 287 287
263 263 264 262 261 265 266 265 266 267 264 263 263 265 267 266 267 270 274 278 280 280 281 282 283 283 284 284 283 283 285 286 286 285 286 287 286 285 284 285 286 286 286 287
Height
5863 5864 5865 5865 5866 5867 5867 5867 5867 5867 5867 5867 5866 5866 5865 5864 5865 5865 5864 5864 5863 5862 5861 5860 5858 5856 5855 5853 5852 5850 5848 5847 5845 5844 5842 5840 5839 5837 5835 5833 5832 5830 5829 5827
5856 5858 5858 5859 5860 5860 5860 5861 5860 5861 5861 5861 5860 5860 5860 5859 5860 5860 5859 5859 5858 5857 5856 5854 5853 5851 5849 5848 5846 5845 5843 5841 5840 5838 5836 5835 5833 5831 5829 5827 5826 5825 5823 5822
5849 5850 5851 5852 5853 5853 5853 5853 5853 5854 5856 5855 5854 5855 5855 5854 5853 5854 5854 5853 5852 5851 5850 5849 5848 5846 5844 5842 5841 5839 5837 5836 5834 5832 5831 5829 5827 5826 5824 5822 5820 5818 5817 5815
5840 5843 5843 5847 5846 5846 5846 5846 5846 5846 5847 5848 5848 5848 5848 5847 5847 5847 5847 5846 5845 5844 5843 5842 5841 5839 5837 5835 5834 5832 5831 5830 5828 5826 5825 5823 5821 5819 5818 5816 5814 5812 5810 5808
5832 5833 5834 5837 5839 5838 5839 5839 5839 5839 5839 5840 5841 5842 5842 5841 5841 5840 5840 5839 5838 5837 5836 5835 5833 5831 5830 5829 5827 5826 5824 5823 5821 5819 5818 5816 5814 5812 5811 5809 5807 5805 5803 5801
5823 5824 5826 5830 5830 5830 5831 5830 5831 5832 5832 5832 5834 5834 5835 5835 5834 5833 5832 5832 5831 5830 5829 5827 5825 5824 5823 5822 5820 5819 5817 5815 5814 5812 5810 5809 5807 5805 5803 5802 5800 5798 5796 5794
5815 5815 5817 5820 5822 5823 5824 5824 5824 5824 5824 5825 5825 5826 5827 5827 5826 5826 5825 5824 5823 5822 5821 5820 5818 5816 5815 5814 5813 5812 5810 5808 5806 5804 5803 5801 5800 5798 5796 5794 5793 5791 5789 5787
5807 5808 5811 5812 5813 5815 5815 5815 5816 5816 5816 5816 5817 5818 5818 5819 5818 5818 5817 5816 5815 5813 5812 5811 5809 5808 5807 5806 5805 5804 5802 5801 5799 5797 5795 5794 5792 5791 5789 5787 5785 5783 5781 5779
5799 5801 5802 5803 5804 5805 5806 5807 5808 5809 5809 5808 5809 5810 5810 5810 5809 5809 5808 5808 5806 5805 5804 5802 5801 5800 5799 5798 5797 5796 5794 5792 5791 5789 5787 5786 5784 5783 5781 5779 5777 5775 5773 5771
5789 5791 5792 5794 5794 5796 5797 5798 5799 5800 5801 5800 5801 5801 5801 5801 5800 5800 5799 5799 5798 5797 5795 5794 5793 5792 5790 5790 5789 5787 5786 5784 5783 5781 5779 5778 5776 5774 5773 5771 5769 5767 5765 5763
5780 5781 5783 5784 5785 5787 5788 5789 5790 5791 5791 5792 5792 5791 5791 5791 5791 5790 5790 5789 5789 5788 5787 5786 5785 5784 5782 5782 5781 5779 5778 5776 5774 5773 5771 5770 5768 5766 5764 5762 5760 5758 5756 5754
5771 5773 5774 5775 5776 5777 5778 5779 5781 5782 5783 5783 5782 5782 5782 5781 5781 5781 5780 5780 5779 5779 5778 5777 5776 5775 5774 5773 5772 5771 5770 5768 5767 5765 5763 5761 5759 5758 5755 5754 5752 5749 5748 5746
5762 5763 5765 5766 5766 5767 5768 5770 5771 5772 5773 5774 5773 5773 5773 5772 5771 5771 5770 5770 5770 5770 5769 5769 5768 5767 5766 5764 5763 5762 5761 5759 5758 5756 5754 5753 5751 5749 5747 5745 5743 5741 5739 5737
5753 5754 5755 5756 5757 5758 5758 5759 5761 5762 5763 5764 5764 5764 5764 5763 5763 5762 5761 5760 5760 5760 5760 5760 5759 5758 5757 5755 5754 5753 5752 5750 5749 5747 5745 5744 5742 5740 5738 5736 5734 5732 5730 5728
5744 5745 5746 5747 5748 5748 5749 5750 5751 5753 5754 5755 5755 5755 5755 5754 5753 5753 5752 5751 5750 5750 5750 5750 5749 5748 5747 5746 5744 5743 5742 5741 5739 5738 5736 5735 5733 5731 5729 5727 5725 5723 5721 5719
5735 5735 5736 5737 5738 5739 5739 5741 5742 5743 5744 5745 5746 5746 5745 5745 5744 5743 5743 5742 5741 5741 5741 5740 5740 5739 5737 5736 5735 5734 5733 5732 5731 5729 5727 5726 5724 5722 5720 5718 5716 5714 5713 5711
5726 5726 5727 5728 5729 5729 5730 5732 5733 5734 5735 5735 5736 5736 5736 5735 5735 5735 5734 5733 5733 5732 5731 5731 5730 5729 5728 5727 5726 5725 5724 5723 5722 5720 5719 5717 5715 5713 5711 5710 5708 5706 5705 5703
5717 5718 5719 5720 5720 5720 5721 5722 5723 5724 5724 5725 5725 5726 5726 5726 5726 5725 5725 5724 5723 5722 5722 5721 5721 5720 5719 5718 5717 5716 5715 5714 5713 5711 5710 5708 5707 5705 5703 5702 5700 5698 5697 5696
5709 5710 5711 5712 5712 5712 5713 5714 5715 5715 5715 5716 5716 5716 5717 5717 5717 5716 5716 5715 5714 5714 5713 5712 5711 5711 5711 5710 5708 5707 5707 5706 5704 5703 5701 5700 5698 5697 5695 5694 5692 5690 5689 5688
5702 5703 5703 5703 5704 5704 5704 5705 5706 5706 5706 5707 5707 5707 5707 5707 5707 5708 5707 5707 5706 5705 5704 5704 5703 5703 5702 5701 5700 5699 5698 5697 5696 5694 5693 5691 5690 5689 5687 5686 5684 5683 5681 5680
5695 5695 5695 5695 5696 5696 5696 5697 5697 5697 5697 5697 5698 5698 5699 5699 5699 5699 5699 5699 5698 5698 5697 5696 5695 5694 5694 5693 5692 5691 5690 5689 5687 5686 5685 5683 5682 5681 5680 5678 5677 5675 5674 5673
5687 5688 5688 5689 5688 5688 5688 5688 5688 5688 5688 5688 5689 5689 5690 5690 5691 5691 5691 5691 5691 5690 5689 5688 5687 5687 5686 5685 5684 5683 5682 5681 5680 5678 5677 5676 5674 5673 5672 5671 5669 5668 5667 5665
5680 5681 5681 5681 5681 5681 5680 5680 5679 5679 5679 5680 5680 5681 5682 5682 5683 5683 5684 5684 5683 5683 5682 5681 5680 5679 5678 5678 5677 5676 5675 5673 5672 5670 5670 5668 5667 5666 5665 5663 5662 5661 5659 5658
5673 5673 5673 5673 5673 5673 5673 5672 5672 5672 5672 5672 5672 5673 5674 5675 5676 5676 5677 5676 5676 5675 5674 5674 5673 5672 5671 5670 5670 5669 5667 5666 5665 5664 5663 5662 5660 5659 5658 5656 5655 5653 5651 5650
5665 5666 5666 5666 5666 5665 5665 5665 5665 5665 5665 5665 5666 5666 5667 5669 5669 5670 5670 5670 5669 5668 5668 5667 5666 5665 5664 5664 5663 5662 5660 5659 5658 5657 5656 5655 5653 5652 5650 5649 5647 5646 5644 5643
5659 5659 5659 5659 5659 5659 5659 5659 5659 5659 5659 5659 5660 5661 5662 5663 5663 5663 5663 5663 5663 5662 5661 5660 5659 5658 5658 5657 5656 5655 5653 5652 5651 5650 5649 5648 5647 5645 5644 5642 5641 5639 5638 5636
5652 5653 5654 5654 5654 5654 5654 5654 5654 5654 5654 5654 5655 5656 5656 5657 5657 5657 5657 5657 5656 5656 5655 5654 5653 5652 5651 5650 5649 5648 5647 5646 5645 5643 5642 5641 5640 5639 5637 5636 5634 5633 5631 5630